Theta_e
307 305 302 300 300 299 302 304 302 298 298 300 294 299 297 298 299 300 297 302 302 302 304 305 304 304 305 305 305 306 306 306 306 308 309 309 310 311
303 300 300 297 297 296 295 296 297 296 291 294 295 296 297 297 298 298 297 300 300 301 303 304 303 303 303 303 304 304 304 304 305 305 306 306 308 309
301 300 297 297 294 294 294 293 293 292 290 292 293 296 296 295 296 296 297 297 297 299 302 302 301 301 302 302 302 302 302 303 303 303 304 304 304 305
299 298 295 295 294 294 294 293 292 292 291 291 292 293 294 295 294 294 295 296 295 297 301 300 300 300 300 300 300 300 301 301 301 301 302 302 302 304
299 296 295 296 294 294 294 293 292 292 291 291 290 291 292 293 292 294 293 294 295 298 298 298 298 298 299 299 299 299 300 300 300 299 300 300 301 301
297 297 296 296 295 295 294 293 292 292 291 290 290 290 290 292 291 290 290 292 292 294 295 296 297 297 297 298 298 300 300 299 299 298 298 299 299 300
298 298 298 299 298 296 293 292 292 290 290 289 288 288 288 288 288 289 289 290 292 294 292 293 294 295 296 296 297 299 299 299 298 298 298 298 298 298
294 294 297 300 300 300 300 298 295 291 289 288 287 287 288 288 289 289 288 287 286 293 291 291 294 294 294 295 297 297 298 298 298 297 297 297 297 297
291 292 292 293 294 295 295 295 295 295 293 289 288 288 288 290 290 289 288 287 287 290 290 289 293 291 294 294 296 298 298 297 297 297 297 297 297 296
290 290 291 292 292 291 291 290 290 292 293 292 291 291 291 292 292 290 289 288 290 291 291 287 291 290 293 294 296 297 297 296 296 296 296 297 296 296
289 290 291 291 292 291 289 288 288 289 291 292 291 291 290 291 292 289 287 286 285 287 291 288 289 289 290 292 295 296 296 296 296 295 296 296 296 296
290 292 293 291 291 290 288 288 286 287 288 288 289 289 290 290 291 290 288 285 285 285 290 287 287 287 286 293 293 294 294 295 295 295 295 296 296 296
289 290 291 292 290 290 290 289 287 287 287 287 287 288 288 289 289 290 290 287 285 285 290 288 286 287 287 287 291 293 293 293 293 294 295 296 296 296
288 290 291 290 290 290 289 288 287 287 287 286 286 286 286 287 288 289 289 289 289 288 290 290 286 287 286 286 287 291 292 293 293 293 295 296 296 296
289 290 289 288 288 288 288 287 287 286 286 284 284 284 285 287 288 288 289 289 289 290 291 290 288 288 287 286 286 288 289 291 293 294 295 294 294 295
290 288 288 287 286 285 285 286 286 287 285 284 284 285 286 286 286 287 286 287 286 287 290 290 290 290 287 288 289 288 289 287 292 293 294 294 294 295
287 285 284 283 282 283 284 284 285 285 284 284 284 284 284 285 285 287 285 285 284 285 286 288 290 291 292 291 288 289 289 290 292 293 293 292 292 293
285 283 281 281 281 282 283 283 284 284 284 284 284 284 283 284 284 285 285 284 284 285 285 286 287 286 289 293 293 289 289 290 292 292 292 291 290 292
283 282 281 281 281 281 282 282 283 283 284 284 283 283 283 284 284 284 283 284 284 284 285 286 286 284 283 284 289 294 289 292 291 290 291 290 289 291
283 282 281 281 281 281 281 282 283 283 283 283 283 283 283 283 283 283 283 283 283 284 285 286 285 284 283 283 283 287 293 294 292 289 289 292 291 293
282 281 281 281 280 281 280 281 282 282 283 283 283 283 283 283 283 284 283 283 283 284 283 284 284 284 289 289 288 289 293 295 296 293 292 289 290 290
282 281 281 281 280 280 280 281 283 283 283 283 282 283 283 283 283 283 283 283 284 284 284 286 287 288 287 285 284 287 291 293 296 297 297 295 292 288
282 281 281 280 280 281 281 282 283 283 283 283 283 283 283 283 284 284 284 284 284 284 284 285 287 287 286 285 286 288 290 291 293 294 296 296 296 296
Wind_Speed
9 9 7 6 6 5 2 1 2 2 1 1 3 3 5 5 9 10 10 15 18 16 15 17 17 19 20 20 21 22 21 20 21 21 17 17 20 19
7 10 7 5 6 5 4 4 2 2 2 1 2 3 5 6 10 10 11 17 18 17 15 17 19 20 20 21 22 21 20 18 18 19 18 18 17 16
9 10 8 6 6 5 5 5 5 3 2 1 2 3 3 9 10 9 10 11 10 16 15 18 21 21 22 22 21 20 17 16 17 18 16 17 18 18
8 10 9 7 7 6 5 6 5 4 2 1 2 2 3 8 10 12 10 10 10 12 14 19 21 22 22 21 20 18 16 15 17 17 16 17 18 17
8 9 9 8 7 4 5 5 4 3 3 2 3 2 3 6 10 9 10 11 9 14 11 20 21 22 23 21 21 18 13 18 16 15 16 17 17 16
8 9 7 9 8 6 5 4 4 4 4 4 2 3 3 6 7 8 9 10 11 8 9 16 21 21 21 22 21 20 18 20 18 17 17 16 16 16
9 8 8 12 12 8 4 3 4 4 3 4 4 3 5 7 10 8 10 10 10 0 10 10 11 11 12 17 16 20 21 20 19 17 17 15 14 13
10 10 9 14 13 15 13 9 7 5 5 3 4 4 5 7 8 10 10 11 7 2 10 11 10 11 11 11 21 20 23 21 19 18 17 15 14 13
10 9 9 9 9 7 12 12 14 13 9 3 3 4 6 9 9 11 12 11 8 10 10 9 11 12 12 11 19 22 21 21 20 19 17 16 14 12
10 11 11 8 6 6 7 9 9 8 8 5 4 5 6 8 8 8 9 12 9 7 8 8 12 13 12 10 15 23 22 24 23 21 20 17 14 12
9 9 9 8 10 9 9 8 8 9 7 9 11 12 12 13 13 8 10 11 10 8 7 13 11 13 10 7 10 21 21 22 23 21 22 19 17 15
9 11 16 11 13 11 9 7 9 6 6 9 9 10 10 12 16 11 9 10 11 7 9 11 11 11 8 5 12 10 11 19 20 19 20 20 17 6
9 8 8 14 14 15 12 8 6 4 8 7 7 8 10 11 10 11 12 9 10 8 13 9 10 10 5 8 7 8 10 10 9 11 15 16 16 12
10 8 9 18 15 13 10 10 11 8 6 8 9 10 10 11 12 12 13 12 9 10 12 13 7 9 6 6 5 9 11 8 9 10 9 13 15 15
8 15 16 15 11 12 13 11 9 7 8 10 9 8 10 10 12 12 12 14 12 11 11 14 10 10 6 6 8 9 11 7 10 10 10 10 10 9
16 12 14 13 15 10 7 7 7 9 9 8 7 9 9 11 11 11 11 12 11 12 13 15 14 11 6 7 7 10 10 6 9 10 9 9 10 11
11 8 7 7 8 5 5 8 9 9 8 7 10 11 11 11 11 11 11 11 12 12 13 12 15 13 8 4 6 9 10 7 9 10 9 9 11 12
8 8 7 7 4 7 7 9 8 10 7 10 10 9 10 11 11 11 12 12 12 12 12 12 13 12 8 5 13 10 10 8 9 11 10 8 11 13
10 8 7 4 8 7 8 6 7 7 9 9 9 9 10 10 12 11 12 12 13 12 12 11 11 10 10 10 6 17 10 9 9 10 9 9 9 10
8 6 7 7 7 7 7 6 7 8 8 8 8 9 9 9 10 12 12 13 13 12 12 11 11 11 8 6 5 6 18 9 9 9 9 9 7 11
7 7 7 7 7 6 6 6 7 7 7 8 9 8 8 9 10 11 12 15 15 12 12 12 10 11 7 5 4 7 9 15 14 10 9 4 7 10
7 7 7 7 7 6 5 6 7 7 9 8 8 8 8 8 9 11 11 12 13 12 11 10 11 10 7 6 5 5 7 7 10 11 15 14 6 7
8 8 7 6 6 6 6 6 7 8 7 7 7 7 8 8 9 9 10 11 12 12 13 12 10 8 6 4 6 5 9 8 6 6 7 13 12 11
Wind_Direction
91 86 83 69 66 65 73 103 148 193 228 7 325 332 352 344 339 350 332 324 336 334 333 334 339 333 328 326 326 318 322 323 315 312 316 310 307 303
93 93 83 82 77 64 65 60 57 116 135 277 289 314 318 340 343 339 331 337 331 333 327 335 337 332 331 330 326 329 324 322 322 319 312 305 313 315
87 96 89 88 81 73 64 59 58 52 79 313 276 318 313 337 338 339 333 324 326 325 326 338 337 335 331 330 334 334 330 327 319 314 325 325 317 309
115 107 106 97 82 74 74 68 63 52 119 349 319 322 316 339 327 322 330 326 326 317 333 341 334 333 330 336 335 333 334 337 323 317 308 312 308 301
117 117 113 106 90 83 75 80 61 46 52 35 352 327 298 329 334 327 326 328 330 329 329 331 335 332 333 337 341 330 344 337 328 323 316 310 305 300
105 101 108 96 105 108 91 76 67 56 34 23 3 326 302 321 322 329 336 344 322 319 342 326 332 330 337 340 339 336 342 339 337 333 323 316 306 299
105 104 98 103 106 106 94 70 82 64 36 26 17 330 339 332 344 338 332 333 312 298 339 330 333 332 341 340 335 336 338 338 338 329 323 318 310 304
104 78 75 84 92 96 94 91 84 63 41 11 10 334 333 333 327 346 338 347 342 336 335 329 342 335 343 339 343 331 339 339 337 333 329 323 316 306
103 100 86 79 80 87 81 73 61 55 60 52 356 350 336 344 337 342 344 339 321 322 327 333 351 336 344 329 330 333 340 343 341 342 338 330 320 306
95 92 93 94 91 98 84 64 50 44 38 35 11 357 359 345 351 339 332 314 322 339 351 334 341 340 335 319 309 338 346 342 344 345 341 339 337 325
89 87 90 86 76 75 77 73 55 36 15 20 24 13 4 8 15 353 356 351 349 339 2 339 342 330 320 314 336 334 341 337 344 342 339 339 335 324
86 79 85 80 70 65 71 64 62 18 0 20 8 3 10 12 11 12 352 359 353 325 356 339 337 350 324 324 330 333 336 337 338 335 334 337 332 327
97 92 82 82 69 61 54 53 49 11 16 14 18 8 13 8 4 360 358 352 346 333 335 346 324 338 309 306 315 333 334 332 334 336 339 342 345 351
99 94 88 77 67 63 57 46 39 31 25 33 18 15 5 3 352 349 345 341 338 320 326 344 322 331 313 301 327 326 337 331 337 342 350 352 355 359
102 94 84 70 65 62 50 43 39 41 38 33 19 10 10 350 344 348 346 340 346 351 348 348 343 330 322 303 310 331 333 339 347 349 352 1 357 359
90 87 83 80 70 66 47 42 45 44 43 25 10 16 8 1 357 356 345 344 350 350 354 354 351 346 326 314 320 338 350 347 340 356 355 7 11 14
99 84 79 66 60 65 63 45 40 37 30 15 27 19 14 4 355 351 352 353 353 348 346 353 354 345 332 315 340 354 350 351 359 0 3 19 20 20
90 81 76 70 89 62 53 51 39 33 20 29 24 13 14 4 350 355 356 358 351 350 352 354 352 354 5 35 23 358 0 4 5 7 14 24 31 23
89 78 92 104 69 64 57 51 48 30 30 27 23 13 11 357 354 0 0 355 354 350 354 354 357 1 4 9 331 354 1 10 10 14 17 25 27 28
84 109 92 76 67 62 56 46 43 34 31 20 19 18 3 359 358 6 359 355 351 351 353 359 2 355 347 331 314 319 350 17 26 21 19 31 43 29
97 89 81 77 72 63 53 51 48 39 29 21 17 10 359 356 4 2 357 353 348 358 357 357 345 328 321 313 7 5 5 13 47 41 15 360 30 35
98 91 80 71 64 59 53 49 47 33 31 22 11 2 351 358 1 358 359 356 358 357 355 351 355 359 7 2 352 342 353 343 4 9 34 37 16 40
94 81 74 70 67 56 51 51 45 42 26 14 2 360 355 353 358 358 356 360 359 359 1 359 5 4 355 350 342 342 357 0 348 5 36 17 30 58